Temp
18 15 14 13 13 13 13 12 12 12 12 13 13 14 14 14 14 15 15 16 16 16 16 15 15 16 16 16 16 16 16 17
18 15 13 13 12 13 12 12 11 12 12 13 13 13 13 14 13 14 14 14 14 15 16 14 15 16 16 16 15 15 15 15
18 16 15 13 12 12 12 12 12 13 13 13 15 13 14 14 15 15 14 14 16 17 15 15 15 16 15 15 15 15 15 14
18 17 15 13 13 12 12 12 12 13 13 12 13 13 13 14 15 15 14 14 16 17 15 15 15 15 15 15 15 16 16 15
21 19 16 15 13 13 13 12 12 12 12 12 13 13 13 15 15 15 14 14 15 16 15 15 14 15 14 14 15 15 16 16
21 20 18 16 15 13 14 13 12 12 12 12 12 13 14 15 14 14 15 14 15 16 16 16 16 16 16 16 14 14 15 16
23 20 19 18 15 15 14 14 13 11 12 12 12 14 14 14 14 13 14 14 15 16 16 16 16 16 16 15 16 16 16 16
23 21 20 18 16 15 14 15 15 12 11 12 12 13 13 13 13 14 14 14 13 14 15 16 16 17 17 16 15 16 16 15
23 23 21 19 17 16 15 15 16 14 13 13 14 13 13 14 14 14 14 14 14 15 15 16 17 17 16 16 15 16 15 15
24 23 21 20 17 17 16 16 16 15 14 13 13 14 14 15 15 14 14 14 15 15 15 16 17 16 16 16 15 16 15 15
24 23 21 20 18 17 16 16 17 16 15 15 15 15 15 15 15 16 16 16 16 16 16 15 16 16 16 16 16 16 16 15
25 24 22 20 19 17 17 16 16 16 16 15 15 15 15 15 15 15 16 16 16 15 15 16 16 16 16 16 15 16 15 14
26 24 23 21 20 19 17 16 16 16 16 16 15 15 15 15 15 15 15 15 15 15 15 16 16 16 16 16 15 15 14 12
26 25 24 22 21 20 18 17 17 16 16 16 16 15 15 15 15 15 15 15 15 15 15 15 15 16 16 15 14 13 14 14
26 25 24 23 22 21 20 18 17 17 17 16 16 15 15 15 15 15 15 15 15 14 15 15 15 15 15 15 14 12 13 14
27 26 26 25 23 22 21 20 18 18 17 17 17 16 16 15 15 15 15 14 14 14 15 15 15 15 15 15 15 13 12 11
27 27 27 26 25 23 21 20 19 18 18 18 18 17 16 16 15 15 15 15 15 15 15 15 15 14 14 14 14 14 11 11
26 26 26 26 26 24 23 21 20 19 18 18 18 17 17 16 16 16 15 15 15 14 15 15 15 15 14 13 13 12 11 11
24 25 25 24 23 24 23 23 21 20 19 18 18 18 17 17 16 16 16 16 15 14 14 14 14 14 13 12 13 12 10 10
Height
751 756 759 761 762 764 766 770 773 778 783 787 792 796 803 809 813 818 822 824 831 836 840 841 846 852 856 856 858 862 864 866
749 754 758 760 761 763 767 769 773 778 782 786 791 795 803 808 813 817 821 825 829 835 835 840 846 851 852 855 857 860 863 867
746 751 755 757 760 762 765 768 772 777 782 787 791 796 801 807 811 814 819 823 827 830 834 838 843 847 850 853 854 856 860 863
741 746 751 754 757 760 763 766 770 775 780 786 791 796 801 804 807 811 815 820 824 828 833 837 841 844 846 850 852 853 856 859
732 740 745 748 753 757 760 764 767 772 778 781 785 786 794 797 803 807 812 817 822 826 830 835 838 840 844 846 850 851 851 854
725 732 738 744 749 754 757 761 765 768 774 778 783 787 793 799 803 805 807 813 819 823 827 830 834 837 838 842 844 846 846 850
717 726 733 739 746 749 753 756 761 766 770 774 780 785 790 795 798 802 805 812 817 820 825 828 830 833 834 837 841 843 842 844
711 718 725 731 739 744 748 751 755 761 764 770 775 780 784 788 791 795 800 805 812 816 821 823 825 828 830 834 838 836 836 838
703 710 719 726 731 737 744 746 749 754 759 765 771 775 777 783 787 791 796 798 803 810 815 817 820 822 825 829 831 831 831 833
697 705 712 719 726 730 734 740 744 748 753 758 763 768 773 777 782 785 789 793 798 804 807 810 812 816 819 821 824 824 825 826
691 699 707 714 721 726 731 734 737 743 747 749 753 758 765 771 775 777 781 786 791 796 799 803 806 808 811 814 815 816 817 817
687 693 701 709 715 720 724 728 732 735 740 745 748 750 755 760 764 769 773 779 783 787 790 794 797 800 804 806 806 808 808 809
680 686 694 701 707 712 716 722 725 728 732 737 741 747 750 751 754 757 763 767 773 777 781 785 788 790 793 795 796 797 798 798
678 683 686 692 697 702 707 711 714 721 725 729 734 737 741 743 746 751 756 760 764 769 773 774 776 779 782 784 785 786 785 785
675 679 681 684 688 693 697 701 707 711 716 720 723 726 729 734 740 745 748 751 754 757 760 762 766 768 771 773 774 774 773 773
671 672 673 676 680 684 689 692 696 701 707 709 708 714 720 726 730 734 738 742 745 749 752 753 754 756 758 760 762 764 765 764
665 665 666 667 670 674 678 682 686 690 694 694 701 706 710 712 718 723 728 731 734 737 739 743 746 747 747 748 752 755 756 756
665 664 664 662 662 664 667 670 677 681 683 686 691 696 700 703 707 712 716 719 725 727 730 732 733 736 737 738 741 743 745 744
663 662 661 661 662 660 661 663 665 669 673 678 682 686 690 695 700 703 706 710 712 716 720 724 726 726 727 730 732 734 734 735
Wind_Speed
8 7 7 7 15 16 20 19 27 26 25 23 25 31 35 37 29 24 26 27 29 27 25 21 20 18 20 18 17 14 14 14
10 9 10 10 15 18 18 22 28 24 25 27 27 29 28 36 32 27 24 25 29 26 21 22 23 20 18 17 16 14 11 11
13 12 12 15 17 20 24 23 25 26 25 26 26 26 24 33 37 30 25 23 36 32 22 25 22 19 17 18 17 14 12 14
15 15 16 16 16 18 19 23 27 25 25 21 22 18 23 21 30 33 28 26 34 33 28 24 21 19 19 18 17 17 17 14
15 16 19 21 19 17 19 20 27 27 28 27 28 33 31 28 32 37 27 28 35 35 29 22 21 23 19 16 17 19 18 13
18 18 21 22 22 22 21 21 22 28 32 30 30 28 30 23 25 30 36 28 35 35 33 25 24 23 21 18 16 17 16 17
18 21 21 20 22 24 24 23 24 25 33 33 32 32 29 23 23 28 32 32 35 29 32 30 26 24 18 18 21 24 17 18
19 20 19 24 24 24 25 26 27 27 31 31 34 31 26 25 26 25 30 33 34 40 37 34 33 30 27 27 27 20 19 19
20 21 22 25 28 28 27 29 28 29 31 33 35 33 29 28 30 31 30 34 36 43 40 37 40 32 31 27 27 23 21 22
19 19 23 25 27 30 31 29 29 31 33 35 35 35 35 33 32 31 33 32 30 31 35 39 38 31 29 27 28 27 24 24
16 17 22 24 25 27 28 29 30 31 32 35 37 38 37 37 35 36 37 36 36 35 34 33 34 32 32 31 31 29 28 27
14 16 21 24 24 27 28 29 29 30 32 33 35 38 39 40 37 38 38 36 38 37 37 36 36 35 35 33 32 31 29 25
12 15 20 24 27 28 30 30 31 32 32 33 34 33 35 38 40 40 39 41 39 40 40 39 39 38 36 35 35 32 28 25
8 12 16 20 27 29 31 33 35 32 32 33 33 35 36 38 39 38 38 38 39 39 40 40 40 40 39 38 36 35 37 35
7 10 13 18 24 28 30 32 33 34 34 34 35 36 38 37 36 36 37 38 38 39 40 39 38 38 38 37 36 35 35 42
10 10 10 14 20 25 27 30 32 33 34 35 39 37 35 34 34 35 35 36 38 39 38 38 38 37 36 35 33 30 28 31
12 14 14 13 18 24 26 29 31 32 35 39 35 34 34 36 35 34 33 34 35 35 37 36 35 34 36 36 33 27 28 31
14 11 11 11 17 22 25 29 26 30 33 32 32 31 32 33 32 32 34 34 31 33 34 33 34 33 34 37 37 37 37 36
13 9 8 10 15 19 22 22 28 30 30 29 29 30 30 28 29 30 30 29 30 30 30 30 29 30 34 38 39 40 34 34
Wind_Direction
194 191 200 195 186 178 176 168 171 164 161 166 165 171 179 178 184 181 179 176 183 181 180 173 174 178 184 177 176 182 184 181
185 190 190 187 183 175 169 170 169 167 167 169 168 167 180 187 197 188 178 181 178 182 176 178 181 190 186 185 178 181 183 190
186 187 191 191 179 180 181 178 178 180 177 183 182 180 181 190 203 209 187 191 193 187 188 186 193 195 188 195 186 188 198 195
188 188 193 188 186 180 178 178 182 182 183 179 177 181 177 193 205 206 203 203 198 201 198 192 198 198 201 203 206 196 205 205
188 189 190 191 190 187 186 183 182 186 183 177 182 179 188 193 197 211 205 212 205 203 200 198 203 206 204 210 218 219 221 215
189 191 193 192 185 188 191 187 186 184 185 186 184 186 195 203 194 198 213 202 202 203 216 211 216 218 217 226 226 219 229 232
190 187 186 190 190 188 190 188 188 187 184 187 189 195 195 200 184 181 184 197 204 209 217 216 209 219 227 237 240 240 234 244
190 185 186 186 190 194 193 193 192 189 186 189 189 195 196 191 189 187 188 193 203 210 211 207 219 231 247 252 242 239 243 244
192 190 189 188 188 192 195 196 194 192 193 196 200 200 198 201 199 196 191 193 197 201 211 220 222 228 225 235 244 244 242 245
196 193 192 192 191 193 193 197 198 194 197 197 201 204 207 208 208 206 207 203 203 204 217 224 225 222 227 231 240 246 249 247
193 197 196 197 197 198 198 199 200 199 198 199 202 206 211 211 212 211 212 214 216 218 220 223 226 230 232 234 241 245 247 246
189 196 199 202 200 200 201 203 203 202 204 205 205 207 208 209 215 217 217 216 219 221 224 229 233 233 233 235 240 245 243 243
192 191 194 199 202 202 202 205 207 207 205 206 210 212 211 211 215 216 216 220 220 222 225 229 232 233 235 236 237 239 233 237
196 195 195 200 203 205 206 205 208 208 208 209 211 212 213 216 218 218 218 222 225 228 231 233 235 235 235 237 236 232 242 254
194 199 206 206 206 208 209 210 210 209 208 210 212 213 215 216 218 220 222 222 223 224 228 232 234 234 234 234 234 235 240 248
257 231 210 210 209 211 214 215 210 210 212 213 216 214 214 218 219 221 223 223 226 228 229 229 228 229 229 230 234 238 242 244
275 261 252 224 214 214 210 215 214 206 211 218 219 217 216 216 219 220 222 224 226 226 228 230 232 234 234 233 235 241 241 241
318 298 273 257 237 220 214 213 207 210 214 217 217 218 219 220 218 220 223 226 228 229 231 232 235 239 240 235 239 242 241 235
322 321 323 301 277 254 235 218 208 209 214 217 215 214 215 217 218 222 224 223 223 225 229 234 238 241 243 246 249 247 231 233